MAS712 WIII-WMKK

Flight info

Callsign MAS712
Flight time 1h 32m
Altitude 40000
Route DOLTA T25 GUSKO A585 PLB G579 VJB A457 GUPTA
Aircraft A359/H-SDE2E3GHIJ3J4J5LM1ORWXY/LB1D1

Departure

Time 2026-05-07 15:08
Airport Soekarno-Hatta International Airport (WIII)

Arrival

Time 2026-05-07 16:41
Airport Kuala Lumpur International Airport (WMKK)
Time Latitude Longitude Altitude Speed Heading
2026-05-07 13:59 -6.11843 106.66234 44 ft 0 kts 158°
2026-05-07 14:53 -6.11835 106.66231 43 ft 4 kts 158°
2026-05-07 14:53 -6.11809 106.66220 41 ft 4 kts 158°
2026-05-07 14:53 -6.11784 106.66210 40 ft 4 kts 158°
2026-05-07 14:54 -6.11766 106.66203 40 ft 4 kts 142°
2026-05-07 14:54 -6.11755 106.66194 41 ft 4 kts 92°
2026-05-07 14:54 -6.11759 106.66173 39 ft 4 kts 68°
2026-05-07 14:54 -6.11768 106.66151 39 ft 1 kts 68°
2026-05-07 14:55 -6.11768 106.66150 39 ft 0 kts 68°
2026-05-07 14:59 -6.11768 106.66151 39 ft 1 kts 68°
2026-05-07 14:59 -6.11757 106.66178 38 ft 7 kts 68°
2026-05-07 14:59 -6.11732 106.66241 44 ft 12 kts 68°
2026-05-07 14:59 -6.11695 106.66335 44 ft 16 kts 68°
2026-05-07 15:00 -6.11650 106.66403 44 ft 10 kts 18°
2026-05-07 15:00 -6.11576 106.66385 44 ft 13 kts 339°
2026-05-07 15:00 -6.11483 106.66349 44 ft 16 kts 338°
2026-05-07 15:00 -6.11380 106.66307 45 ft 8 kts 338°
2026-05-07 15:01 -6.11353 106.66271 45 ft 7 kts 277°
2026-05-07 15:01 -6.11366 106.66214 45 ft 10 kts 251°
2026-05-07 15:01 -6.11395 106.66139 45 ft 13 kts 248°
2026-05-07 15:01 -6.11433 106.66045 45 ft 16 kts 248°
2026-05-07 15:02 -6.11478 106.65932 44 ft 19 kts 248°
2026-05-07 15:02 -6.11530 106.65799 44 ft 22 kts 248°
2026-05-07 15:02 -6.11590 106.65652 44 ft 24 kts 248°
2026-05-07 15:02 -6.11656 106.65490 44 ft 26 kts 248°
2026-05-07 15:03 -6.11723 106.65316 45 ft 28 kts 248°
2026-05-07 15:03 -6.11786 106.65160 45 ft 21 kts 248°
2026-05-07 15:03 -6.11842 106.65017 45 ft 23 kts 248°
2026-05-07 15:03 -6.11906 106.64859 45 ft 26 kts 248°
2026-05-07 15:04 -6.11975 106.64687 45 ft 27 kts 248°
2026-05-07 15:04 -6.12049 106.64502 45 ft 29 kts 248°
2026-05-07 15:04 -6.12101 106.64372 45 ft 18 kts 248°
2026-05-07 15:04 -6.12151 106.64248 45 ft 20 kts 248°
2026-05-07 15:05 -6.12206 106.64110 45 ft 21 kts 248°
2026-05-07 15:05 -6.12235 106.64038 45 ft 0 kts 248°
2026-05-07 15:05 -6.12238 106.64030 45 ft 4 kts 248°
2026-05-07 15:06 -6.12256 106.63985 45 ft 9 kts 248°
2026-05-07 15:06 -6.12248 106.63923 46 ft 8 kts 304°
2026-05-07 15:06 -6.12193 106.63891 47 ft 9 kts 353°
2026-05-07 15:06 -6.12148 106.63904 48 ft 0 kts 27°
2026-05-07 15:07 -6.12128 106.63915 48 ft 7 kts 27°
2026-05-07 15:07 -6.12068 106.63963 47 ft 13 kts 62°
2026-05-07 15:07 -6.12052 106.64005 47 ft 6 kts 69°
2026-05-07 15:07 -6.11937 106.64296 46 ft 87 kts 68°
2026-05-07 15:08 -6.11619 106.65093 48 ft 157 kts 68°
2026-05-07 15:08 -6.11147 106.66230 534 ft 176 kts 68°
2026-05-07 15:08 -6.10583 106.67284 1472 ft 175 kts 51°
2026-05-07 15:08 -6.09566 106.68074 1918 ft 202 kts 34°
2026-05-07 15:09 -6.08295 106.68837 2410 ft 221 kts 34°
2026-05-07 15:09 -6.06912 106.69696 2879 ft 246 kts 35°
2026-05-07 15:09 -6.05444 106.70654 3631 ft 256 kts 36°
2026-05-07 15:09 -6.03937 106.71660 4365 ft 264 kts 36°
2026-05-07 15:10 -6.02393 106.72704 4826 ft 268 kts 36°
2026-05-07 15:10 -6.00834 106.73764 5366 ft 273 kts 36°
2026-05-07 15:10 -5.99258 106.74839 6309 ft 274 kts 37°
2026-05-07 15:10 -5.97580 106.75774 7154 ft 281 kts 18°
2026-05-07 15:11 -5.95635 106.75814 8034 ft 290 kts 347°
2026-05-07 15:11 -5.93868 106.74824 8942 ft 298 kts 316°
2026-05-07 15:11 -5.92798 106.73044 9845 ft 304 kts 286°
2026-05-07 15:11 -5.92523 106.70918 10538 ft 314 kts 274°
2026-05-07 15:12 -5.92224 106.68660 10874 ft 337 kts 281°
2026-05-07 15:12 -5.91599 106.66329 11337 ft 352 kts 288°
2026-05-07 15:12 -5.90751 106.63992 12033 ft 358 kts 291°
2026-05-07 15:12 -5.89798 106.61666 12795 ft 362 kts 293°
2026-05-07 15:13 -5.88794 106.59362 13532 ft 366 kts 294°
2026-05-07 15:13 -5.87736 106.57015 14212 ft 370 kts 295°
2026-05-07 15:13 -5.86653 106.54652 14860 ft 375 kts 295°
2026-05-07 15:13 -5.85547 106.52258 15508 ft 379 kts 295°
2026-05-07 15:14 -5.84437 106.49868 16150 ft 383 kts 295°
2026-05-07 15:14 -5.83301 106.47426 16789 ft 387 kts 295°
2026-05-07 15:14 -5.82155 106.44969 17437 ft 391 kts 295°
2026-05-07 15:14 -5.80997 106.42478 18069 ft 395 kts 295°
2026-05-07 15:15 -5.79833 106.39966 18609 ft 399 kts 295°
2026-05-07 15:15 -5.78657 106.37426 19167 ft 402 kts 295°
2026-05-07 15:15 -5.77487 106.34904 19733 ft 404 kts 295°
2026-05-07 15:15 -5.76293 106.32332 20309 ft 408 kts 295°
2026-05-07 15:16 -5.75071 106.29751 20876 ft 411 kts 298°
2026-05-07 15:16 -5.73460 106.27369 21449 ft 412 kts 314°
2026-05-07 15:16 -5.71239 106.25564 22045 ft 413 kts 329°
2026-05-07 15:16 -5.68768 106.24132 22621 ft 415 kts 332°
2026-05-07 15:17 -5.66224 106.22725 23195 ft 418 kts 332°
2026-05-07 15:17 -5.63661 106.21300 23708 ft 422 kts 332°
2026-05-07 15:17 -5.61081 106.19856 24149 ft 425 kts 332°
2026-05-07 15:17 -5.58513 106.18413 24628 ft 428 kts 332°
2026-05-07 15:18 -5.55898 106.16941 25118 ft 432 kts 332°
2026-05-07 15:18 -5.53256 106.15452 25650 ft 435 kts 332°
2026-05-07 15:18 -5.50600 106.13953 26183 ft 438 kts 332°
2026-05-07 15:18 -5.47958 106.12463 26711 ft 442 kts 332°
2026-05-07 15:19 -5.45263 106.10942 27244 ft 445 kts 332°
2026-05-07 15:19 -5.42544 106.09408 27774 ft 449 kts 332°
2026-05-07 15:19 -5.39798 106.07860 28306 ft 453 kts 332°
2026-05-07 15:19 -5.37043 106.06309 28793 ft 456 kts 332°
2026-05-07 15:20 -5.34259 106.04737 29321 ft 460 kts 332°
2026-05-07 15:20 -5.31464 106.03157 29808 ft 464 kts 332°
2026-05-07 15:20 -5.28676 106.01580 30228 ft 467 kts 332°
2026-05-07 15:20 -5.25827 105.99970 30681 ft 469 kts 332°
2026-05-07 15:21 -5.22977 105.98361 31106 ft 472 kts 332°
2026-05-07 15:21 -5.20103 105.96738 31543 ft 474 kts 332°
2026-05-07 15:21 -5.17215 105.95108 31987 ft 476 kts 332°
2026-05-07 15:21 -5.14354 105.93493 32394 ft 478 kts 332°
2026-05-07 15:22 -5.11440 105.91850 32788 ft 481 kts 332°
2026-05-07 15:22 -5.08504 105.90190 33179 ft 483 kts 331°
2026-05-07 15:22 -5.05569 105.88517 33558 ft 486 kts 331°
2026-05-07 15:22 -5.02623 105.86832 33916 ft 488 kts 331°
2026-05-07 15:23 -4.99662 105.85139 34226 ft 490 kts 331°
2026-05-07 15:23 -4.96727 105.83462 34526 ft 492 kts 331°
2026-05-07 15:23 -4.93749 105.81762 34934 ft 491 kts 331°
2026-05-07 15:23 -4.91132 105.80270 35342 ft 489 kts 331°
2026-05-07 15:24 -4.88174 105.78585 35788 ft 487 kts 331°
2026-05-07 15:24 -4.85216 105.76901 36210 ft 486 kts 331°
2026-05-07 15:24 -4.82314 105.75248 36627 ft 485 kts 331°
2026-05-07 15:24 -4.79369 105.73572 37026 ft 484 kts 331°
2026-05-07 15:25 -4.76446 105.71908 37451 ft 483 kts 331°
2026-05-07 15:25 -4.73524 105.70245 37876 ft 481 kts 331°
2026-05-07 15:25 -4.70611 105.68587 38275 ft 480 kts 331°
2026-05-07 15:25 -4.67746 105.66956 38661 ft 479 kts 331°
2026-05-07 15:26 -4.64847 105.65307 38975 ft 477 kts 331°
2026-05-07 15:26 -4.61958 105.63663 39285 ft 477 kts 331°
2026-05-07 15:26 -4.59072 105.62021 39591 ft 476 kts 331°
2026-05-07 15:26 -4.56187 105.60380 39831 ft 476 kts 331°
2026-05-07 15:27 -4.50367 105.57070 39878 ft 483 kts 331°
2026-05-07 15:27 -4.44552 105.53763 39882 ft 483 kts 331°
2026-05-07 15:28 -4.38686 105.50427 39878 ft 483 kts 331°
2026-05-07 15:28 -4.32858 105.47114 39879 ft 484 kts 331°
2026-05-07 15:29 -4.26988 105.43777 39878 ft 484 kts 331°
2026-05-07 15:29 -4.21154 105.40462 39878 ft 484 kts 331°
2026-05-07 15:30 -4.15282 105.37126 39879 ft 484 kts 331°
2026-05-07 15:30 -4.10402 105.34353 39878 ft 484 kts 331°
2026-05-07 15:31 -4.04553 105.31031 39882 ft 485 kts 331°
2026-05-07 15:31 -3.98677 105.27695 39879 ft 485 kts 331°
2026-05-07 15:32 -3.92804 105.24360 39879 ft 485 kts 331°
2026-05-07 15:32 -3.86955 105.21058 39880 ft 485 kts 331°
2026-05-07 15:33 -3.81071 105.17746 39881 ft 485 kts 331°
2026-05-07 15:33 -3.75177 105.14429 39881 ft 485 kts 331°
2026-05-07 15:34 -3.69319 105.11132 39882 ft 485 kts 331°
2026-05-07 15:34 -3.63849 105.08053 39880 ft 485 kts 331°
2026-05-07 15:35 -3.57961 105.04739 39884 ft 485 kts 331°
2026-05-07 15:35 -3.52067 105.01423 39884 ft 485 kts 331°
2026-05-07 15:36 -3.46201 104.98122 39884 ft 485 kts 332°
2026-05-07 15:36 -3.40311 104.94809 39883 ft 485 kts 332°
2026-05-07 15:37 -3.34430 104.91501 39884 ft 485 kts 332°
2026-05-07 15:37 -3.28527 104.88182 39886 ft 485 kts 332°
2026-05-07 15:38 -3.22674 104.84890 39883 ft 485 kts 332°
2026-05-07 15:38 -3.16766 104.81569 39892 ft 485 kts 332°
2026-05-07 15:39 -3.10867 104.78253 39898 ft 485 kts 332°
2026-05-07 15:39 -3.05003 104.74957 39906 ft 485 kts 332°
2026-05-07 15:40 -2.99107 104.71643 39883 ft 485 kts 332°
2026-05-07 15:40 -2.93237 104.68346 39883 ft 485 kts 332°
2026-05-07 15:41 -2.87156 104.65435 39885 ft 484 kts 343°
2026-05-07 15:41 -2.80617 104.63883 39884 ft 482 kts 349°
2026-05-07 15:42 -2.74051 104.62647 39885 ft 483 kts 350°
2026-05-07 15:42 -2.67421 104.61437 39883 ft 483 kts 350°
2026-05-07 15:43 -2.60801 104.60205 39883 ft 484 kts 350°
2026-05-07 15:43 -2.54173 104.58955 39885 ft 484 kts 350°
2026-05-07 15:44 -2.47580 104.57707 39884 ft 484 kts 350°
2026-05-07 15:44 -2.40946 104.56452 39883 ft 485 kts 350°
2026-05-07 15:45 -2.34309 104.55198 39883 ft 485 kts 350°
2026-05-07 15:45 -2.27704 104.53950 39884 ft 485 kts 350°
2026-05-07 15:46 -2.17727 104.52065 39882 ft 485 kts 350°
2026-05-07 15:47 -2.11124 104.50818 39883 ft 485 kts 350°
2026-05-07 15:47 -2.04478 104.49563 39883 ft 485 kts 350°
2026-05-07 15:48 -1.97823 104.48307 39882 ft 485 kts 350°
2026-05-07 15:48 -1.91218 104.47060 39880 ft 486 kts 350°
2026-05-07 15:49 -1.84566 104.45804 39881 ft 486 kts 350°
2026-05-07 15:49 -1.77907 104.44547 39881 ft 486 kts 350°
2026-05-07 15:50 -1.71656 104.43367 39880 ft 487 kts 350°
2026-05-07 15:50 -1.65042 104.42118 39880 ft 487 kts 350°
2026-05-07 15:51 -1.58842 104.40948 39884 ft 487 kts 350°
2026-05-07 15:51 -1.52157 104.39686 39883 ft 488 kts 350°
2026-05-07 15:52 -1.45498 104.38429 39885 ft 489 kts 350°
2026-05-07 15:52 -1.38806 104.37166 39883 ft 489 kts 350°
2026-05-07 15:53 -1.32137 104.35908 39883 ft 490 kts 350°
2026-05-07 15:53 -1.25416 104.34639 39884 ft 490 kts 350°
2026-05-07 15:54 -1.18737 104.33379 39882 ft 491 kts 350°
2026-05-07 15:54 -1.12001 104.32108 39881 ft 491 kts 350°
2026-05-07 15:55 -1.05320 104.30848 39881 ft 491 kts 350°
2026-05-07 15:55 -0.98596 104.29579 39881 ft 491 kts 350°
2026-05-07 15:56 -0.92270 104.28386 39880 ft 492 kts 350°
2026-05-07 15:56 -0.85550 104.27118 39881 ft 492 kts 350°
2026-05-07 15:57 -0.78803 104.25845 39880 ft 492 kts 350°
2026-05-07 15:57 -0.72089 104.24579 39882 ft 493 kts 350°
2026-05-07 15:58 -0.65336 104.23306 39882 ft 493 kts 350°
2026-05-07 15:58 -0.58631 104.22041 39878 ft 494 kts 350°
2026-05-07 15:59 -0.52366 104.20847 39877 ft 494 kts 349°
2026-05-07 15:59 -0.45613 104.19498 39878 ft 494 kts 349°
2026-05-07 16:00 -0.38875 104.18144 39876 ft 495 kts 349°
2026-05-07 16:00 -0.32105 104.16794 39879 ft 495 kts 349°
2026-05-07 16:01 -0.25377 104.15458 39875 ft 495 kts 349°
2026-05-07 16:01 -0.18607 104.14115 39880 ft 495 kts 349°
2026-05-07 16:02 -0.11881 104.12781 39885 ft 495 kts 349°
2026-05-07 16:02 -0.05119 104.11439 39876 ft 494 kts 349°
2026-05-07 16:03 0.01596 104.10106 39881 ft 494 kts 349°
2026-05-07 16:03 0.08346 104.08766 39877 ft 494 kts 349°
2026-05-07 16:04 0.15092 104.07427 39878 ft 494 kts 349°
2026-05-07 16:04 0.21832 104.06090 39874 ft 494 kts 349°
2026-05-07 16:05 0.28529 104.04762 39880 ft 494 kts 349°
2026-05-07 16:05 0.35280 104.03427 39879 ft 493 kts 349°
2026-05-07 16:06 0.42029 104.02088 39879 ft 493 kts 349°
2026-05-07 16:06 0.48739 104.00758 39878 ft 493 kts 349°
2026-05-07 16:07 0.55490 103.99420 39876 ft 493 kts 349°
2026-05-07 16:07 0.62197 103.98096 39876 ft 493 kts 349°
2026-05-07 16:08 0.68931 103.96755 39875 ft 493 kts 349°
2026-05-07 16:08 0.75670 103.95412 39876 ft 493 kts 349°
2026-05-07 16:09 0.82392 103.93995 39877 ft 493 kts 348°
2026-05-07 16:09 0.89073 103.92561 39877 ft 493 kts 348°
2026-05-07 16:10 0.95788 103.91133 39881 ft 493 kts 348°
2026-05-07 16:10 1.02474 103.89725 39880 ft 492 kts 348°
2026-05-07 16:11 1.09191 103.88305 39880 ft 492 kts 348°
2026-05-07 16:11 1.15901 103.86883 39881 ft 492 kts 348°
2026-05-07 16:12 1.22549 103.85219 39883 ft 493 kts 339°
2026-05-07 16:12 1.28699 103.82275 39883 ft 493 kts 333°
2026-05-07 16:13 1.34776 103.79071 39884 ft 493 kts 333°
2026-05-07 16:13 1.40863 103.75896 39883 ft 493 kts 333°
2026-05-07 16:14 1.46949 103.72777 39884 ft 493 kts 334°
2026-05-07 16:14 1.53302 103.70193 39886 ft 492 kts 342°
2026-05-07 16:15 1.59745 103.68001 39884 ft 492 kts 338°
2026-05-07 16:15 1.65588 103.64421 39883 ft 494 kts 319°
2026-05-07 16:16 1.69873 103.59068 39888 ft 495 kts 299°
2026-05-07 16:16 1.72995 103.52965 39884 ft 496 kts 296°
2026-05-07 16:17 1.75971 103.46733 39673 ft 494 kts 296°
2026-05-07 16:17 1.77453 103.43640 39327 ft 491 kts 296°
2026-05-07 16:17 1.78940 103.40563 38767 ft 491 kts 296°
2026-05-07 16:17 1.80421 103.37524 37942 ft 494 kts 296°
2026-05-07 16:18 1.81946 103.34408 36925 ft 501 kts 296°
2026-05-07 16:18 1.82966 103.32329 36295 ft 504 kts 296°
2026-05-07 16:18 1.84521 103.29165 35380 ft 509 kts 296°
2026-05-07 16:18 1.86098 103.25962 34508 ft 512 kts 297°
2026-05-07 16:19 1.87680 103.22746 33596 ft 516 kts 296°
2026-05-07 16:19 1.89259 103.19525 32743 ft 517 kts 296°
2026-05-07 16:19 1.90833 103.16312 32165 ft 511 kts 296°
2026-05-07 16:19 1.92374 103.13164 31587 ft 507 kts 296°
2026-05-07 16:20 1.93907 103.10035 30999 ft 503 kts 296°
2026-05-07 16:20 1.95448 103.06888 30408 ft 499 kts 296°
2026-05-07 16:20 1.96974 103.03776 29787 ft 496 kts 296°
2026-05-07 16:20 1.98487 103.00689 29146 ft 492 kts 297°
2026-05-07 16:21 1.99984 102.97633 28576 ft 487 kts 297°
2026-05-07 16:21 2.01468 102.94604 27993 ft 482 kts 297°
2026-05-07 16:21 2.02941 102.91600 27402 ft 478 kts 297°
2026-05-07 16:21 2.04393 102.88637 26833 ft 473 kts 297°
2026-05-07 16:22 2.05835 102.85699 26250 ft 470 kts 297°
2026-05-07 16:22 2.07270 102.82758 25667 ft 466 kts 297°
2026-05-07 16:22 2.08668 102.79890 25095 ft 463 kts 297°
2026-05-07 16:22 2.10072 102.77010 24517 ft 460 kts 297°
2026-05-07 16:23 2.11472 102.74139 23935 ft 458 kts 297°
2026-05-07 16:23 2.12868 102.71276 23322 ft 455 kts 297°
2026-05-07 16:23 2.14253 102.68439 22680 ft 452 kts 297°
2026-05-07 16:23 2.15643 102.65629 22070 ft 446 kts 299°
2026-05-07 16:24 2.17371 102.63138 21488 ft 439 kts 313°
2026-05-07 16:24 2.19483 102.60963 20913 ft 433 kts 317°
2026-05-07 16:24 2.21635 102.58860 20335 ft 429 kts 317°
2026-05-07 16:24 2.23760 102.56780 19758 ft 425 kts 317°
2026-05-07 16:25 2.25855 102.54717 19187 ft 422 kts 317°
2026-05-07 16:25 2.27935 102.52663 18882 ft 411 kts 317°
2026-05-07 16:25 2.29908 102.50710 18768 ft 395 kts 317°
2026-05-07 16:25 2.31839 102.48797 18626 ft 382 kts 317°
2026-05-07 16:26 2.33697 102.46955 18470 ft 370 kts 317°
2026-05-07 16:26 2.35498 102.45170 18291 ft 359 kts 317°
2026-05-07 16:26 2.37231 102.43431 18141 ft 349 kts 315°
2026-05-07 16:26 2.38542 102.41422 17974 ft 340 kts 292°
2026-05-07 16:27 2.39327 102.39250 17671 ft 335 kts 287°
2026-05-07 16:27 2.39707 102.36927 16968 ft 344 kts 272°
2026-05-07 16:27 2.39687 102.34515 16470 ft 346 kts 268°
2026-05-07 16:27 2.39568 102.32085 15755 ft 347 kts 266°
2026-05-07 16:28 2.39416 102.29709 15056 ft 338 kts 266°
2026-05-07 16:28 2.39254 102.27418 14347 ft 332 kts 266°
2026-05-07 16:28 2.39086 102.25132 13544 ft 327 kts 265°
2026-05-07 16:28 2.38916 102.22877 12680 ft 322 kts 265°
2026-05-07 16:29 2.38746 102.20655 11822 ft 317 kts 265°
2026-05-07 16:29 2.38578 102.18476 10988 ft 312 kts 265°
2026-05-07 16:29 2.38414 102.16347 10135 ft 309 kts 265°
2026-05-07 16:29 2.38249 102.14216 9220 ft 306 kts 265°
2026-05-07 16:30 2.38085 102.12106 8308 ft 302 kts 265°
2026-05-07 16:30 2.37923 102.10034 7514 ft 295 kts 265°
2026-05-07 16:30 2.37765 102.08009 6776 ft 288 kts 265°
2026-05-07 16:30 2.37613 102.06057 6282 ft 274 kts 265°
2026-05-07 16:31 2.37648 102.04223 5929 ft 254 kts 281°
2026-05-07 16:31 2.38124 102.02600 5612 ft 240 kts 289°
2026-05-07 16:31 2.38689 102.01040 5299 ft 234 kts 290°
2026-05-07 16:31 2.39242 101.99526 4815 ft 234 kts 290°
2026-05-07 16:32 2.39795 101.97993 4309 ft 232 kts 289°
2026-05-07 16:32 2.40340 101.96469 3918 ft 235 kts 289°
2026-05-07 16:32 2.40986 101.94958 3539 ft 237 kts 302°
2026-05-07 16:32 2.41984 101.93679 3472 ft 231 kts 312°
2026-05-07 16:33 2.43066 101.92479 3466 ft 231 kts 312°
2026-05-07 16:33 2.44142 101.91286 3464 ft 231 kts 312°
2026-05-07 16:33 2.45209 101.90096 3466 ft 231 kts 312°
2026-05-07 16:33 2.46277 101.88926 3398 ft 222 kts 316°
2026-05-07 16:34 2.47439 101.87960 3324 ft 211 kts 326°
2026-05-07 16:34 2.48602 101.87167 3273 ft 201 kts 327°
2026-05-07 16:34 2.49788 101.86375 3164 ft 203 kts 327°
2026-05-07 16:34 2.50951 101.85595 3054 ft 203 kts 327°
2026-05-07 16:35 2.52107 101.84805 3020 ft 198 kts 326°
2026-05-07 16:35 2.53192 101.84052 3005 ft 182 kts 326°
2026-05-07 16:35 2.54216 101.83342 2999 ft 177 kts 326°
2026-05-07 16:35 2.55199 101.82666 2997 ft 166 kts 326°
2026-05-07 16:36 2.56133 101.82028 3005 ft 160 kts 327°
2026-05-07 16:36 2.57059 101.81404 2999 ft 160 kts 327°
2026-05-07 16:36 2.57985 101.80785 2991 ft 160 kts 327°
2026-05-07 16:36 2.58905 101.80171 2855 ft 154 kts 327°
2026-05-07 16:37 2.59768 101.79593 2655 ft 145 kts 327°
2026-05-07 16:37 2.60586 101.79042 2464 ft 141 kts 327°
2026-05-07 16:37 2.61391 101.78498 2296 ft 141 kts 327°
2026-05-07 16:37 2.62207 101.77950 2105 ft 141 kts 327°
2026-05-07 16:38 2.63021 101.77401 1914 ft 140 kts 327°
2026-05-07 16:38 2.63827 101.76858 1739 ft 139 kts 327°
2026-05-07 16:38 2.64633 101.76315 1563 ft 140 kts 327°
2026-05-07 16:38 2.65442 101.75768 1377 ft 140 kts 327°
2026-05-07 16:39 2.66247 101.75227 1206 ft 139 kts 327°
2026-05-07 16:39 2.67047 101.74688 1024 ft 138 kts 327°
2026-05-07 16:39 2.67843 101.74153 866 ft 137 kts 327°
2026-05-07 16:39 2.68631 101.73620 705 ft 136 kts 327°
2026-05-07 16:40 2.69410 101.73096 539 ft 134 kts 327°
2026-05-07 16:40 2.70172 101.72576 362 ft 133 kts 327°
2026-05-07 16:40 2.70941 101.72060 217 ft 133 kts 328°
2026-05-07 16:40 2.71714 101.71544 64 ft 133 kts 327°
2026-05-07 16:41 2.72432 101.71067 54 ft 106 kts 326°
2026-05-07 16:41 2.72800 101.70819 55 ft 24 kts 326°
2026-05-07 16:41 2.72934 101.70740 59 ft 24 kts 338°
2026-05-07 16:41 2.73088 101.70699 57 ft 14 kts 353°
2026-05-07 16:42 2.73168 101.70693 57 ft 14 kts 356°
2026-05-07 16:42 2.73283 101.70685 64 ft 19 kts 356°
2026-05-07 16:42 2.73413 101.70636 57 ft 22 kts 331°
2026-05-07 16:42 2.73531 101.70559 56 ft 19 kts 326°
2026-05-07 16:43 2.73553 101.70544 57 ft 4 kts 326°
2026-05-07 16:43 2.73599 101.70513 59 ft 12 kts 326°
2026-05-07 16:43 2.73687 101.70455 56 ft 18 kts 326°
2026-05-07 16:43 2.73778 101.70395 55 ft 16 kts 326°
2026-05-07 16:44 2.73874 101.70330 57 ft 18 kts 326°
2026-05-07 16:44 2.73988 101.70254 53 ft 22 kts 326°
2026-05-07 16:44 2.74076 101.70195 58 ft 14 kts 326°
2026-05-07 16:44 2.74160 101.70137 60 ft 16 kts 326°
2026-05-07 16:45 2.74259 101.70071 58 ft 19 kts 326°
2026-05-07 16:45 2.74335 101.70020 59 ft 9 kts 326°
2026-05-07 16:45 2.74393 101.70009 60 ft 9 kts 27°
2026-05-07 16:45 2.74438 101.70061 59 ft 10 kts 54°
2026-05-07 16:46 2.74481 101.70124 62 ft 12 kts 56°
2026-05-07 16:46 2.74531 101.70198 63 ft 14 kts 57°
2026-05-07 16:46 2.74588 101.70285 64 ft 16 kts 56°
2026-05-07 16:46 2.74653 101.70383 65 ft 18 kts 56°
2026-05-07 16:47 2.74725 101.70490 67 ft 19 kts 55°
2026-05-07 16:47 2.74805 101.70607 69 ft 21 kts 56°
2026-05-07 16:47 2.74885 101.70726 84 ft 18 kts 56°
2026-05-07 16:47 2.74962 101.70838 83 ft 21 kts 53°
2026-05-07 16:48 2.75032 101.70937 85 ft 10 kts 54°
2026-05-07 16:48 2.75047 101.70999 82 ft 9 kts 119°
2026-05-07 16:48 2.74991 101.71044 83 ft 10 kts 144°
2026-05-07 16:48 2.74931 101.71090 85 ft 8 kts 131°
2026-05-07 16:49 2.74933 101.71121 85 ft 5 kts 70°
2026-05-07 16:49 2.74951 101.71152 84 ft 4 kts 56°
2026-05-07 16:49 2.74959 101.71164 85 ft 0 kts 56°
2026-05-07 16:50 2.74959 101.71163 85 ft 0 kts 56°